Weather History for KLBL - August, 2013

Change the Weather History Date:

Saturday, August 3, 2013

  Actual Average Record
Temperature  
Mean Temperature 80 °F -  
Max Temperature 91 °F 94 °F 108 °F (1944)
Min Temperature 69 °F 66 °F 50 °F (1974)
Cooling Degree Days 15    
Growing Degree Days 30 (Base 50)    
Moisture  
Dew Point 66 °F    
Average Humidity 66    
Maximum Humidity 83    
Minimum Humidity 40    
Precipitation  
Precipitation 0.00 in - - ()
Sea Level Pressure  
Sea Level Pressure 30.02 in    
Wind  
Wind Speed 11 mph (NNE)    
Max Wind Speed 18 mph    
Max Gust Speed 24 mph    
Visibility 10 miles    
Events      
Averages and records for this station are not official NWS values.
T = Trace of Precipitation, MM = Missing Value Source: NWS Daily Summary

Daily Weather History Graph

Daily Weather History Graph

Search for Another Location

Airport or City:

Trip Planner

Search our weather history database for the weather conditions in past years. The results will help you decide how hot, cold, wet, or windy it might be!

Date:

Astronomy

Aug. 03, 2013 Rise Set
Actual Time 6:50 AM CDT 8:48 PM CDT
Civil Twilight 6:22 AM CDT 9:17 PM CDT
Nautical Twilight 5:47 AM CDT 9:51 PM CDT
Astronomical Twilight 5:10 AM CDT 10:28 PM CDT
Moon 4:02 AM CDT (8/3) 6:31 PM CDT (8/3)
Length of Visible Light 14h 54m
Length of Day
13h 57m
Waning Crescent, 9% of the Moon is Illuminated
Aug 3
Waning Crescent
Aug 6
New
Aug 14
First Quarter
Aug 20
Full
Aug 28
Last Quarter

Hourly Weather History & Observations

Time (CDT) Temp. Heat Index Dew Point Humidity Pressure Visibility Wind Dir Wind Speed Gust Speed Precip Events Conditions
12:15 AM 77.0 °F - 64.4 °F 65% 29.92 in 10.0 mi NNE 12.7 mph - N/A   Clear
12:35 AM 75.2 °F - 64.4 °F 69% 29.93 in 10.0 mi NNE 9.2 mph - N/A   Clear
12:55 AM 75.2 °F - 64.4 °F 69% 29.93 in 10.0 mi NNE 9.2 mph - N/A   Clear
1:15 AM 75.2 °F - 64.4 °F 69% 29.95 in 10.0 mi NNE 6.9 mph - N/A   Clear
1:35 AM 75.2 °F - 64.4 °F 69% 29.95 in 10.0 mi NNE 9.2 mph - N/A   Clear
1:55 AM 73.4 °F - 64.4 °F 73% 29.94 in 10.0 mi NNE 9.2 mph - N/A   Clear
2:15 AM 73.4 °F - 62.6 °F 69% 29.95 in 10.0 mi NNE 5.8 mph - N/A   Clear
2:35 AM 73.4 °F - 62.6 °F 69% 29.94 in 10.0 mi NNE 5.8 mph - N/A   Clear
2:55 AM 71.6 °F - 62.6 °F 73% 29.94 in 10.0 mi North 5.8 mph - N/A   Clear
3:15 AM 71.6 °F - 62.6 °F 73% 29.95 in 10.0 mi NNE 5.8 mph - N/A   Clear
3:35 AM 71.6 °F - 62.6 °F 73% 29.95 in 10.0 mi North 9.2 mph - N/A   Clear
3:55 AM 71.6 °F - 62.6 °F 73% 29.95 in 10.0 mi North 6.9 mph - N/A   Clear
4:15 AM 69.8 °F - 64.4 °F 83% 29.96 in 10.0 mi NNE 5.8 mph - N/A   Clear
4:35 AM 69.8 °F - 64.4 °F 83% 29.96 in 10.0 mi NNW 8.1 mph - N/A   Clear
4:55 AM 69.8 °F - 64.4 °F 83% 29.95 in 10.0 mi NNW 10.4 mph - N/A   Clear
5:15 AM 69.8 °F - 64.4 °F 83% 29.95 in 7.0 mi North 10.4 mph - N/A   Clear
5:35 AM 71.6 °F - 66.2 °F 83% 29.96 in 5.0 mi North 13.8 mph - N/A   Mostly Cloudy
5:55 AM 71.6 °F - 66.2 °F 83% 29.97 in 6.0 mi North 10.4 mph - N/A   Overcast
6:15 AM 71.6 °F - 66.2 °F 83% 29.98 in 7.0 mi North 10.4 mph - N/A   Overcast
6:35 AM 71.6 °F - 66.2 °F 83% 29.98 in 8.0 mi North 13.8 mph - N/A   Overcast
6:55 AM 71.6 °F - 66.2 °F 83% 29.99 in 8.0 mi North 13.8 mph - N/A   Overcast
7:15 AM 71.6 °F - 66.2 °F 83% 30.00 in 7.0 mi North 15.0 mph - N/A   Overcast
7:35 AM 71.6 °F - 66.2 °F 83% 30.00 in 8.0 mi North 16.1 mph - N/A   Overcast
7:55 AM 71.6 °F - 66.2 °F 83% 30.00 in 9.0 mi North 13.8 mph 23.0 mph N/A   Overcast
8:15 AM 71.6 °F - 64.4 °F 78% 30.00 in 8.0 mi North 18.4 mph - N/A   Overcast
8:35 AM 71.6 °F - 64.4 °F 78% 30.00 in 7.0 mi North 17.3 mph - N/A   Overcast
8:55 AM 71.6 °F - 64.4 °F 78% 30.02 in 8.0 mi NNE 16.1 mph 23.0 mph N/A   Overcast
9:15 AM 71.6 °F - 64.4 °F 78% 30.02 in 10.0 mi NNE 18.4 mph - N/A   Overcast
9:35 AM 71.6 °F - 64.4 °F 78% 30.02 in 10.0 mi NNE 17.3 mph - N/A   Overcast
9:55 AM 73.4 °F - 66.2 °F 78% 30.03 in 10.0 mi NNE 18.4 mph 24.2 mph N/A   Overcast
10:15 AM 73.4 °F - 66.2 °F 78% 30.03 in 10.0 mi NNE 17.3 mph - N/A   Overcast
10:35 AM 73.4 °F - 66.2 °F 78% 30.05 in 10.0 mi NNE 15.0 mph - N/A   Overcast
10:55 AM 73.4 °F - 66.2 °F 78% 30.05 in 10.0 mi NE 15.0 mph - N/A   Overcast
11:15 AM 73.4 °F - 66.2 °F 78% 30.05 in 10.0 mi NNE 16.1 mph - N/A   Overcast
11:35 AM 75.2 °F - 66.2 °F 73% 30.05 in 10.0 mi NNE 12.7 mph - N/A   Overcast
11:55 AM 77.0 °F - 66.2 °F 69% 30.06 in 10.0 mi NNE 13.8 mph - N/A   Overcast
12:15 PM 78.8 °F - 66.2 °F 65% 30.06 in 10.0 mi NNE 13.8 mph 17.3 mph N/A   Mostly Cloudy
12:35 PM 80.6 °F 82.7 °F 66.2 °F 61% 30.05 in 10.0 mi NNE 17.3 mph - N/A   Partly Cloudy
12:55 PM 80.6 °F 83.2 °F 68.0 °F 65% 30.05 in 10.0 mi North 12.7 mph - N/A   Clear
1:15 PM 80.6 °F 82.7 °F 66.2 °F 61% 30.04 in 10.0 mi NNE 15.0 mph 21.9 mph N/A   Clear
1:35 PM 82.4 °F 85.4 °F 68.0 °F 62% 30.05 in 10.0 mi NNE 11.5 mph 18.4 mph N/A   Clear
1:55 PM 82.4 °F 85.4 °F 68.0 °F 62% 30.06 in 10.0 mi NNE 11.5 mph - N/A   Partly Cloudy
2:15 PM 82.4 °F 84.6 °F 66.2 °F 58% 30.06 in 7.0 mi NNE 13.8 mph 18.4 mph N/A   Clear
2:35 PM 82.4 °F 85.4 °F 68.0 °F 62% 30.06 in 10.0 mi NNE 12.7 mph - N/A   Clear
2:55 PM 84.2 °F 87.3 °F 68.0 °F 58% 30.06 in 10.0 mi NNE 10.4 mph - N/A   Clear
3:15 PM 86.0 °F 89.4 °F 68.0 °F 55% 30.06 in 10.0 mi NNE 10.4 mph 19.6 mph N/A   Clear
3:35 PM 87.8 °F 91.4 °F 68.0 °F 52% 30.05 in 10.0 mi NE 11.5 mph 17.3 mph N/A   Partly Cloudy
3:55 PM 87.8 °F 91.4 °F 68.0 °F 52% 30.04 in 10.0 mi NNE 12.7 mph 18.4 mph N/A   Clear
4:15 PM 89.6 °F 94.7 °F 69.8 °F 52% 30.03 in 10.0 mi NNE 13.8 mph 21.9 mph N/A   Clear
4:35 PM 89.6 °F 93.4 °F 68.0 °F 49% 30.03 in 10.0 mi NNE 15.0 mph 18.4 mph N/A   Clear
4:55 PM 89.6 °F 93.4 °F 68.0 °F 49% 30.02 in 10.0 mi NE 13.8 mph 18.4 mph N/A   Clear
5:15 PM 91.4 °F 94.0 °F 66.2 °F 43% 30.02 in 10.0 mi ENE 11.5 mph - N/A   Clear
5:35 PM 91.4 °F 93.2 °F 64.4 °F 41% 30.02 in 10.0 mi ENE 13.8 mph 20.7 mph N/A   Clear
5:55 PM 91.4 °F 93.2 °F 64.4 °F 41% 30.01 in 10.0 mi NE 13.8 mph 19.6 mph N/A   Clear
6:15 PM 89.6 °F 91.1 °F 64.4 °F 43% 30.03 in 10.0 mi NE 9.2 mph - N/A   Clear
6:35 PM 89.6 °F 90.1 °F 62.6 °F 40% 30.04 in 10.0 mi ENE 11.5 mph - N/A   Clear
6:55 PM 89.6 °F 91.1 °F 64.4 °F 43% 30.04 in 10.0 mi NE 11.5 mph 17.3 mph N/A   Clear
7:15 PM 89.6 °F 91.1 °F 64.4 °F 43% 30.03 in 10.0 mi NE 13.8 mph - N/A   Clear
7:35 PM 87.8 °F 89.4 °F 64.4 °F 46% 30.05 in 10.0 mi NE 13.8 mph - N/A   Clear
7:55 PM 86.0 °F 87.3 °F 64.4 °F 48% 30.05 in 10.0 mi NE 16.1 mph 19.6 mph N/A   Clear
8:15 PM 84.2 °F 86.6 °F 66.2 °F 55% 30.06 in 10.0 mi NE 15.0 mph 20.7 mph N/A   Clear
8:35 PM 84.2 °F 86.6 °F 66.2 °F 55% 30.06 in 10.0 mi ENE 15.0 mph 20.7 mph N/A   Clear
8:55 PM 84.2 °F 86.6 °F 66.2 °F 55% 30.06 in 10.0 mi East 10.4 mph 18.4 mph N/A   Clear
9:15 PM 82.4 °F 84.6 °F 66.2 °F 58% 30.07 in 10.0 mi East 13.8 mph 17.3 mph N/A   Clear
9:35 PM 82.4 °F 84.6 °F 66.2 °F 58% 30.08 in 10.0 mi East 11.5 mph - N/A   Clear
9:55 PM 82.4 °F 84.6 °F 66.2 °F 58% 30.09 in 10.0 mi East 10.4 mph - N/A   Clear
10:15 PM 80.6 °F 82.7 °F 66.2 °F 61% 30.09 in 10.0 mi East 9.2 mph - N/A   Clear
10:35 PM 80.6 °F 82.7 °F 66.2 °F 61% 30.09 in 10.0 mi NE 8.1 mph - N/A   Clear
10:55 PM 80.6 °F 82.7 °F 66.2 °F 61% 30.09 in 10.0 mi ENE 9.2 mph - N/A   Clear
11:15 PM 78.8 °F - 66.2 °F 65% 30.09 in 10.0 mi NE 11.5 mph - N/A   Clear
11:35 PM 78.8 °F - 66.2 °F 65% 30.10 in 10.0 mi NE 8.1 mph - N/A   Clear
11:55 PM 78.8 °F - 66.2 °F 65% 30.09 in 10.0 mi East 9.2 mph - N/A   Clear